Notices

What's New in latest Release from April 7th, 2021:

- Updated Glossary, including Speed of Maximum Gust, and Total Hourly Precipitation

- Updated national and regional climate services offices contacts and prices information

- Addition of station inventory lists for 1981-2010, 1971-2000, and 1961-1990 Normals.

If you haven't already, please take our survey and provide feedback about our website: https://eccc.sondage-survey.ca/f/LanguageSelection.aspx?s=442ca660-fcf1-47c0-95a9-59707d6fd709

Hourly Data Report for December 21, 2003

TORONTO CITY
ONTARIO

43°40'00.000" N
79°24'00.000" W
112.50 m
6158355
71508
XTO

Download Data

Hourly Data (December 2003)
Hourly Data Report for December 21, 2003
TIME
LST
Temp Definition
°C
Dew Point Definition
°C
Rel Hum Definition
%
Precip. Amount Definition
mm

Wind Dir Definition
10's deg

Wind Spd Definition
km/h
Visibility Definition
km
Stn Press Definition
kPa
Hmdx Definition


Wind Chill Definition


Weather Definition


00:00 -2.1 -7.0 69   LegendMM LegendMM LegendMM 100.60     LegendNANA
01:00 -2.2 -6.6 72   LegendMM LegendMM LegendMM 100.57     LegendNANA
02:00 -2.0 -6.5 71   LegendMM LegendMM LegendMM 100.55     LegendNANA
03:00 -1.5 -6.7 68   LegendMM LegendMM LegendMM 100.54     LegendNANA
04:00 -0.8 -6.6 65   LegendMM LegendMM LegendMM 100.52     LegendNANA
05:00 -0.1 -4.5 72   LegendMM LegendMM LegendMM 100.42     LegendNANA
06:00 0.4 -4.4 70   LegendMM LegendMM LegendMM 100.40     LegendNANA
07:00 0.8 -4.9 66   LegendMM LegendMM LegendMM 100.35     LegendNANA
08:00 0.8 -4.9 66   LegendMM LegendMM LegendMM 100.25     LegendNANA
09:00 1.1 -5.0 64   LegendMM LegendMM LegendMM 100.22     LegendNANA
10:00 1.9 -5.3 59   LegendMM LegendMM LegendMM 100.18     LegendNANA
11:00 2.7 -5.0 57   LegendMM LegendMM LegendMM 100.15     LegendNANA
12:00 3.9 -4.3 55   LegendMM LegendMM LegendMM 100.05     LegendNANA
13:00 4.3 -3.9 55   LegendMM LegendMM LegendMM 99.94     LegendNANA
14:00 4.3 -3.6 56   LegendMM LegendMM LegendMM 99.91     LegendNANA
15:00 4.3 -3.3 58   LegendMM LegendMM LegendMM 99.92     LegendNANA
16:00 4.0 -3.1 60   LegendMM LegendMM LegendMM 99.92     LegendNANA
17:00 3.8 -2.5 63   LegendMM LegendMM LegendMM 99.91     LegendNANA
18:00 3.5 -2.1 67   LegendMM LegendMM LegendMM 99.88     LegendNANA
19:00 3.4 -1.5 70   LegendMM LegendMM LegendMM 99.83     LegendNANA
20:00 3.6 -0.9 72   LegendMM LegendMM LegendMM 99.83     LegendNANA
21:00 3.8 -1.4 69   LegendMM LegendMM LegendMM 99.81     LegendNANA
22:00 4.1 -1.1 69   LegendMM LegendMM LegendMM 99.77     LegendNANA
23:00 5.0 -1.8 61   LegendMM LegendMM LegendMM 99.74     LegendNANA

Notes on Data Quality.

Legend

  • E = Estimated
  • M = Missing
  • NA = Not Available*
  • [empty] = Indicates an unobserved value
Date modified: